Location: Bercimuel
(41.3983°N, 3.5711°W)
Time: 19:55:53
(UTC+00:00)

Cosmos 1805 - Pass Details

Date: 15 May 2026
Orbit: 411 x 414 km, 82.5° (Epoch: 8 June)

Event Time Altitude Azimuth Distance (km) Brightness Sun altitude
Rises 22:05:26 0° 346° (NNW) 2,372 7.8 -23.0°
Reaches altitude 10° 22:07:30 10° 340° (NNW) 1,502 6.6 -23.2°
Enters shadow 22:10:04 41° 301° (WNW) 620 3.9 -23.4°
